Regional Weather Roundup
Issued by NWS

Home | Current Version | Previous Version | Graphics & Text | Print | Product List | Glossary On
Versions: 1 2 3 4 5 6 7 8 9 10 11 12 13 14 15 16 17 18 19 20 21 22 23 24 25 26 27 28 29 30 31 32 33 34 35 36 37 38 39 40 41 42 43 44 45 46 47 48 49 50
404
ASUS43 KBIS 240602
RWRND

NORTH DAKOTA REGIONAL WEATHER ROUNDUP
NATIONAL WEATHER SERVICE BISMARCK ND
100 AM CDT MON APR 24 2017

NOTE: "FAIR" INDICATES FEW OR NO CLOUDS BELOW 12,000 FEET WITH NO
SIGNIFICANT WEATHER AND/OR OBSTRUCTIONS TO VISIBILITY.


NDZ001>003-009>011-017-240700-
NORTHWEST NORTH DAKOTA

CITY           SKY/WX    TMP DP  RH WIND       PRES   REMARKS
WILLISTON      CLOUDY    31  27  85 SE12      29.82R
6HR MIN TEMP:  31; 6HR MAX TEMP:  33;

MINOT          CLOUDY    31  26  82 E17       29.84F WCI  19
MINOT AFB      CLOUDY    31  25  78 E15       29.84F
$$

NDZ018>021-031>035-040>046-240700-
SOUTHWEST NORTH DAKOTA

CITY           SKY/WX    TMP DP  RH WIND       PRES   REMARKS
BISMARCK       CLOUDY    33  30  88 E17       29.76F
6HR MIN TEMP:  33; 6HR MAX TEMP:  37;

DICKINSON      FOG       29  28  96 E17       29.71R VSB 1/4 WCI  17
GARRISON         N/A     29  27  92 E18       29.79F WCI  16
6HR MIN TEMP:  28; 6HR MAX TEMP:  29;

HETTINGER ARPT FOG       32  32 100 S9        29.78R VSB 1/4
$$

NDZ004>008-012>016-024-026-027-054-240700-
NORTHEAST NORTH DAKOTA

CITY           SKY/WX    TMP DP  RH WIND       PRES   REMARKS
GRAND FORKS      N/A     34  31  88 NE14      29.91F
GRND FRKS AFB  CLOUDY    32  29  89 E14       29.91F
DEVILS LAKE    CLOUDY    30  26  85 E18       29.89F WCI  18
$$

NDZ022-023-025-028>030-036>039-047>053-240700-
SOUTHEAST NORTH DAKOTA

CITY           SKY/WX    TMP DP  RH WIND       PRES   REMARKS
FARGO          CLOUDY    39  34  82 E14       29.81F
6HR MIN TEMP:  37; 6HR MAX TEMP:  41;

JAMESTOWN      CLOUDY    32  30  92 NE18      29.78F
$$





USA.gov is the U.S. government's official web portal to all federal, state and local government web resources and services.